Location: Rowland
(34.5359°N, 79.2929°W)
Time: 17:44:50
(UTC+00:00)

S-56A Canister/Altair - Pass Details

Date: 10 October 2022
Orbit: 638 x 2494 km, 38.9° (Epoch: 06 December)

Event Time Altitude Azimuth Distance (km) Brightness Sun altitude
Exits shadow 07:48:42 52° 76° (ENE) 1,748 9.3 -43.0°
Drops below altitude 10° 07:54:09 10° 94° (E) 3,109 11.1 -42.0°
Sets 07:56:28 0° 97° (E) 3,868 11.8 -41.6°
